Location: Unspecified
(0.0000°N, 0.0000°E)
Time: 09:34:25
(UTC+00:00)

Vanguard 3 - Pass Details

Date: 27 September 2023
Orbit: 507 x 3241 km, 33.3° (Epoch: 06 December)

Event Time Altitude Azimuth Distance (km) Brightness Sun altitude
Rises 12:08:51 0° 221° (SW) 6,528 11.8 85.3°
Reaches altitude 10° 12:13:33 10° 212° (SSW) 5,786 11.7 84.1°
Maximum altitude 12:30:31 38° 150° (SSE) 4,280 11.4 80.0°
Drops below altitude 10° 12:46:46 10° 88° (E) 5,631 11.4 76.0°
Sets 12:51:09 0° 81° (E) 6,352 11.5 74.9°
